GW0525 Weather Reports


time (UTC)temp
C
wind
direction
speed
KPH
gust
KPH
rain 1hr
cm
rain 24hr
cm
rain mn
cm
humidity
%
barometer
mb
20260504044604 13 347 27.4 38.6 0.00 0.00 0.00 39 1004.7
20260504043101 14 28 33.8 41.8 0.00 0.00 0.00 38 1004.7
20260504041600 15 22 37.0 48.3 0.00 0.00 0.00 38 1004.5
20260504040100 15 352 40.2 61.2 0.00 0.00 0.00 36 1004.3
20260504034614 16 355 56.3 70.8 0.00 0.00 0.00 34 1003.6
20260504033101 16 322 20.9 30.6 0.00 0.00 0.00 35 1003.2
20260504031559 16 316 20.9 29.0 0.00 0.00 0.00 35 1003.2
20260504030058 17 329 20.9 45.1 0.00 0.00 0.00 34 1003.1
20260504024601 17 323 19.3 32.2 0.00 0.00 0.00 33 1003.0
20260504023100 18 331 22.5 35.4 0.00 0.00 0.00 32 1002.9
20260504021559 18 323 29.0 41.8 0.00 0.00 0.00 30 1002.9
20260504020100 19 316 25.7 38.6 0.00 0.00 0.00 25 1002.8
20260504014619 20 294 32.2 45.1 0.00 0.00 0.00 22 1002.7
20260504013104 20 307 27.4 48.3 0.00 0.00 0.00 23 1002.8
20260504011605 21 292 32.2 49.9 0.00 0.00 0.00 22 1002.8
20260504010101 21 321 30.6 48.3 0.00 0.00 0.00 21 1002.9
20260504004559 21 304 30.6 43.5 0.00 0.00 0.00 26 1003.0
20260504003101 21 298 17.7 33.8 0.00 0.00 0.00 26 1003.1
20260504001623 21 292 30.6 48.3 0.00 0.00 0.00 25 1003.5
20260504000059 22 289 32.2 53.1 0.00 0.00 0.00 24 1003.5
20260503234600 22 273 32.2 45.1 0.00 0.00 0.00 24 1003.7
20260503233102 22 284 32.2 54.7 0.00 0.00 0.00 23 1003.9
20260503231600 22 286 33.8 49.9 0.00 0.00 0.00 21 1004.3
20260503230106 21 291 30.6 48.3 0.00 0.00 0.00 21 1004.5
20260503224600 22 286 29.0 51.5 0.00 0.00 0.00 21 1004.8
20260503223100 21 306 33.8 51.5 0.00 0.00 0.00 20 1005.3
20260503221559 22 287 33.8 48.3 0.00 0.00 0.00 20 1005.5
20260503220105 21 300 33.8 49.9 0.00 0.00 0.00 19 1005.6
20260503214559 21 275 38.6 48.3 0.00 0.00 0.00 20 1005.7
20260503213114 22 298 33.8 49.9 0.00 0.00 0.00 21 1005.8
20260503211600 21 291 30.6 51.5 0.00 0.00 0.00 22 1006.1
20260503210105 21 290 35.4 49.9 0.00 0.00 0.00 25 1006.3
20260503204559 21 288 25.7 53.1 0.00 0.00 0.00 25 1006.4
20260503203104 22 265 38.6 53.1 0.00 0.00 0.00 24 1006.6
20260503201601 21 244 38.6 54.7 0.00 0.00 0.00 26 1006.9
20260503200104 21 277 35.4 49.9 0.00 0.00 0.00 27 1007.3
20260503194604 21 251 29.0 51.5 0.00 0.00 0.00 28 1007.5
20260503193112 21 246 30.6 49.9 0.00 0.00 0.00 29 1007.8
20260503191609 21 253 38.6 54.7 0.00 0.00 0.00 30 1008.1
20260503190107 20 257 29.0 49.9 0.00 0.00 0.00 29 1008.4
20260503184611 20 289 33.8 48.3 0.00 0.00 0.00 31 1008.8
20260503183111 20 267 32.2 49.9 0.00 0.00 0.00 30 1009.3
20260503181610 20 261 29.0 48.3 0.00 0.00 0.00 31 1009.5
20260503180105 19 257 35.4 54.7 0.00 0.00 0.00 32 1009.7
20260503174600 19 236 33.8 51.5 0.00 0.00 0.00 32 1010.2
20260503173106 19 271 29.0 46.7 0.00 0.00 0.00 32 1010.6
20260503171601 19 290 32.2 46.7 0.00 0.00 0.00 32 1011.1
20260503090108 8 253 4.8 8.0 0.00 0.00 0.00 47 1014.5
20260503081630 9 246 8.0 11.3 0.00 0.00 0.00 44 1014.6
20260503080117 8 250 6.4 8.0 0.00 0.00 0.00 47 1014.7
20260503071601 8 240 6.4 8.0 0.00 0.00 0.00 46 1014.9
20260503070106 9 232 4.8 6.4 0.00 0.00 0.00 44 1015.0